TDRS 12

Last updated on Wed Sep 17 2025 00:02:40 GMT+0000 (Coordinated Universal Time)

1 39504U 14004A 25259.50391167 -.00000286 00000+0 00000+0 0 9990 2 39504 3.7375 13.8737 0006158 214.3213 267.8560 1.00278377 41535
UTC large
Height (km)
Speed (km/s)
/
Latitude / Longitude
Inclination (degrees)
Orbital Period (minutes)
Azimuth
Elevation
Range (km)
Doppler Factor

Next 0 passes for location: London (51.5072 / 0.1276)

Sorry there are no passes over London.